NOAA 16 DEB, 41288

Orbit data source: Space-Track

NOAA 16 DEB, 41288 is space debris in SSO originally from a launch on Thu, 21 Sep 2000 UTC launched from the Air Force Western Test Range (AFWTR). Debris objects in space refer to the collection of defunct objects orbiting the Earth. Examples of debris include non-operational satellites, rocket bodies, and fragments generated from explosions, collisions, or faulty payload assembly.

Loading next visibility...
Identifier
41288, 2000-055GQ
Orbit
SSO
Country
Flag of USUS
Related business
Manufacturer
Unknown
Mission
Spacecraft
Bus & Motor
Unknown
Mass
Unknown
Launch date (UTC)
2000-09-21 (25 years ago)
Launch vehicle
Unknown
Launch site
Air Force Western Test Range (AFWTR)
Object type
Payload
Rocket body
Debris
Shape & HBR
Unknown shape, 0.1 m
Radar Cross Section
Small (<0.1 m²)

Expand to show TLE details & history
Last TLE update: 1 day ago

TLE from 1 day ago
0 NOAA 16 DEB
1 41288U 00055GQ  25340.54884033  .00017329  00000-0  61793-2 0  9992
2 41288  98.9040  77.9879 0023177  76.1769 284.1991 14.34084117512698
Epoch: 2025-12-06T13:10Z
TLE epoch observation values (Epoch: 2025-12-06T13:10:19.804Z)
Latitude
-0.00009°
Longitude
164.83041°
Altitude
777.006 km
Speed
7.468 km/s
True Right ascension
05h 11m 57s
True Declination
0° 00' 00"
Sunlit
Object was in full shadow at epoch
Visualization orbit readout
Latitude
Unknown
Longitude
Unknown
Altitude
Unknown
Speed
Unknown
Apparent Right ascension
Unknown
Apparent Declination
Unknown
Sunlit
N/A
Visualization observer readout
Local Sidereal Time
14:13:38
Azimuth
Unknown
Elevation
Unknown
Doppler factor
Unknown
Orbital elements
Apogee altitude
791.84 km
Perigee altitude
758.681 km
Semi-major axis
7,153.398 km
Eccentricity
0.00232
Inclination
98.904°
RAAN
77.9879°
Arg. of periapsis
76.1769°
True anomaly
283.94144°
Mean anomaly
284.1991°
Eccentric anomaly
284.07029°
Mean motion
3.58736 °/min
Orbital period
100.35 mins
BSTAR
0.0061793
Loading maneuver chart data...
Computing Atmospheric mass density...
Loading historical data...
Loading historical data...
Loading historical data...
Loading historical data...
Loading historical data...
Loading historical data...
Loading historical data...

Documentation

Showing up to 5 results
|